Time,TemperatureF,DewpointF,PressureIn,WindDirection,WindDirectionDegrees,WindSpeedMPH,WindSpeedGustMPH,Humidity,HourlyPrecipIn,Conditions,Clouds,dailyrainin,SoftwareType,DateUTC
2013-07-08 00:04:00,72.0,68.9,29.04,NNE,22,0.0,4.0,90,0.00,,,0.00,meteohub,2013-07-08 05:04:00,
2013-07-08 00:09:00,72.0,68.9,29.04,NNE,22,0.0,4.0,90,0.00,,,0.00,meteohub,2013-07-08 05:09:00,
2013-07-08 00:14:00,72.0,68.9,29.04,NNE,22,0.0,3.0,90,0.00,,,0.00,meteohub,2013-07-08 05:14:00,
2013-07-08 00:19:00,72.0,68.9,29.04,East,90,2.0,4.0,90,0.00,,,0.00,meteohub,2013-07-08 05:19:00,
2013-07-08 00:24:00,72.0,68.5,29.04,NE,45,1.0,4.0,89,0.00,,,0.00,meteohub,2013-07-08 05:24:00,
2013-07-08 00:29:00,72.0,68.5,29.07,East,90,0.0,4.0,89,0.00,,,0.00,meteohub,2013-07-08 05:29:00,
2013-07-08 00:35:00,72.0,68.5,29.07,East,90,0.0,3.0,89,0.00,,,0.00,meteohub,2013-07-08 05:35:00,
2013-07-08 00:40:00,71.8,68.4,29.07,SSW,202,0.0,3.0,89,0.00,,,0.00,meteohub,2013-07-08 05:40:00,
2013-07-08 00:45:00,71.6,68.2,29.07,ENE,68,0.0,3.0,89,0.00,,,0.00,meteohub,2013-07-08 05:45:00,
2013-07-08 00:50:00,71.6,68.2,29.07,West,270,1.0,1.0,89,0.00,,,0.00,meteohub,2013-07-08 05:50:00,
2013-07-08 00:55:00,71.6,68.2,29.07,NE,45,0.0,2.0,89,0.00,,,0.00,meteohub,2013-07-08 05:55:00,
2013-07-08 01:00:00,71.4,68.4,29.07,NE,45,0.0,2.0,90,0.00,,,0.00,meteohub,2013-07-08 06:00:00,
2013-07-08 01:06:00,71.4,68.4,29.07,NE,45,0.0,1.0,90,0.00,,,0.00,meteohub,2013-07-08 06:06:00,
2013-07-08 01:11:00,71.2,68.5,29.10,NE,45,0.0,1.0,91,0.00,,,0.00,meteohub,2013-07-08 06:11:00,
2013-07-08 01:16:00,71.1,68.0,29.10,NE,45,0.0,0.0,90,0.00,,,0.00,meteohub,2013-07-08 06:16:00,
2013-07-08 01:21:00,70.9,67.8,29.10,NNW,338,2.0,0.0,90,0.00,,,0.00,meteohub,2013-07-08 06:21:00,
2013-07-08 01:26:00,70.9,67.8,29.10,NNE,22,2.0,2.0,90,0.00,,,0.00,meteohub,2013-07-08 06:26:00,
2013-07-08 01:31:00,70.9,68.2,29.10,North,0,1.0,3.0,91,0.00,,,0.00,meteohub,2013-07-08 06:31:00,
2013-07-08 01:36:00,70.7,68.0,29.10,NE,45,0.0,3.0,91,0.00,,,0.00,meteohub,2013-07-08 06:36:00,
2013-07-08 01:42:00,70.9,68.2,29.10,NNE,22,3.0,3.0,91,0.00,,,0.00,meteohub,2013-07-08 06:42:00,
2013-07-08 01:47:00,70.9,68.2,29.10,NNE,22,2.0,4.0,91,0.00,,,0.00,meteohub,2013-07-08 06:47:00,
2013-07-08 01:52:00,70.7,68.0,29.10,NE,45,2.0,4.0,91,0.00,,,0.00,meteohub,2013-07-08 06:52:00,
2013-07-08 01:57:00,70.5,67.8,29.10,NE,45,0.0,4.0,91,0.00,,,0.00,meteohub,2013-07-08 06:57:00,
2013-07-08 02:02:00,70.5,67.8,29.10,NNE,22,0.0,4.0,91,0.00,,,0.00,meteohub,2013-07-08 07:02:00,
2013-07-08 02:07:00,70.5,67.8,29.10,NNE,22,2.0,3.0,91,0.00,,,0.00,meteohub,2013-07-08 07:07:00,
2013-07-08 02:12:00,70.5,67.8,29.10,NE,45,4.0,4.0,91,0.00,,,0.00,meteohub,2013-07-08 07:12:00,
2013-07-08 02:17:00,70.3,67.6,29.10,NW,315,2.0,4.0,91,0.00,,,0.00,meteohub,2013-07-08 07:17:00,
2013-07-08 02:22:00,70.3,67.6,29.10,SE,135,1.0,4.0,91,0.00,,,0.00,meteohub,2013-07-08 07:22:00,
2013-07-08 02:27:00,70.2,67.5,29.10,South,180,0.0,4.0,91,0.00,,,0.00,meteohub,2013-07-08 07:27:00,
2013-07-08 02:32:00,70.0,67.3,29.10,SE,135,0.0,4.0,91,0.00,,,0.00,meteohub,2013-07-08 07:32:00,
2013-07-08 02:37:00,69.8,67.1,29.10,ESE,112,0.0,1.0,91,0.00,,,0.00,meteohub,2013-07-08 07:37:00,
2013-07-08 02:42:00,69.6,66.9,29.10,SW,225,0.0,0.0,91,0.00,,,0.00,meteohub,2013-07-08 07:42:00,
2013-07-08 02:47:00,69.4,67.1,29.10,SSE,158,0.0,1.0,92,0.00,,,0.00,meteohub,2013-07-08 07:47:00,
2013-07-08 02:52:00,69.4,67.1,29.10,SW,225,0.0,1.0,92,0.00,,,0.00,meteohub,2013-07-08 07:52:00,
2013-07-08 02:57:00,69.4,67.1,29.10,NNW,338,1.0,0.0,92,0.00,,,0.00,meteohub,2013-07-08 07:57:00,
2013-07-08 03:02:00,69.4,67.1,29.10,North,0,4.0,4.0,92,0.00,,,0.00,meteohub,2013-07-08 08:02:00,
2013-07-08 03:07:00,69.4,67.3,29.10,NNE,22,2.0,4.0,93,0.00,,,0.00,meteohub,2013-07-08 08:07:00,
2013-07-08 03:12:00,69.3,67.1,29.07,North,0,3.0,4.0,93,0.00,,,0.00,meteohub,2013-07-08 08:12:00,
2013-07-08 03:17:00,69.3,67.5,29.07,NNE,22,3.0,4.0,94,0.00,,,0.00,meteohub,2013-07-08 08:17:00,
2013-07-08 03:22:00,69.3,67.5,29.07,NW,315,1.0,6.0,94,0.00,,,0.00,meteohub,2013-07-08 08:22:00,
2013-07-08 03:27:00,69.3,67.5,29.07,North,0,2.0,6.0,94,0.00,,,0.00,meteohub,2013-07-08 08:27:00,
2013-07-08 03:32:00,69.3,67.5,29.07,North,0,0.0,6.0,94,0.00,,,0.00,meteohub,2013-07-08 08:32:00,
2013-07-08 03:37:00,69.1,67.3,29.07,NNE,22,0.0,4.0,94,0.00,,,0.00,meteohub,2013-07-08 08:37:00,
2013-07-08 03:42:00,69.1,67.3,29.07,NNE,22,0.0,4.0,94,0.00,,,0.00,meteohub,2013-07-08 08:42:00,
2013-07-08 03:47:00,69.1,67.3,29.07,NE,45,0.0,3.0,94,0.00,,,0.00,meteohub,2013-07-08 08:47:00,
2013-07-08 03:52:00,69.1,67.3,29.07,North,0,1.0,1.0,94,0.00,,,0.00,meteohub,2013-07-08 08:52:00,
2013-07-08 03:57:00,69.1,67.3,29.07,North,0,1.0,3.0,94,0.00,,,0.00,meteohub,2013-07-08 08:57:00,
2013-07-08 04:02:00,69.1,67.6,29.07,NE,45,2.0,4.0,95,0.00,,,0.00,meteohub,2013-07-08 09:02:00,
2013-07-08 04:07:00,69.1,67.6,29.07,NNE,22,1.0,4.0,95,0.00,,,0.00,meteohub,2013-07-08 09:07:00,
2013-07-08 04:12:00,69.3,67.8,29.07,NNE,22,2.0,4.0,95,0.00,,,0.00,meteohub,2013-07-08 09:12:00,
2013-07-08 04:17:00,69.3,67.8,29.07,NE,45,0.0,3.0,95,0.00,,,0.00,meteohub,2013-07-08 09:17:00,
2013-07-08 04:22:00,69.3,67.8,29.07,NNE,22,0.0,3.0,95,0.00,,,0.00,meteohub,2013-07-08 09:22:00,
2013-07-08 04:27:00,69.1,67.6,29.07,NNE,22,0.0,2.0,95,0.00,,,0.00,meteohub,2013-07-08 09:27:00,
2013-07-08 04:32:00,69.1,67.6,29.07,NNE,22,0.0,0.0,95,0.00,,,0.00,meteohub,2013-07-08 09:32:00,
2013-07-08 04:37:00,68.9,67.5,29.07,NE,45,0.0,0.0,95,0.00,,,0.00,meteohub,2013-07-08 09:37:00,
2013-07-08 04:42:00,68.7,67.3,29.07,NE,45,0.0,4.0,95,0.00,,,0.00,meteohub,2013-07-08 09:42:00,
2013-07-08 04:47:00,68.7,67.3,29.07,NE,45,0.0,4.0,95,0.00,,,0.00,meteohub,2013-07-08 09:47:00,
2013-07-08 04:52:00,68.5,67.1,29.07,NE,45,0.0,0.0,95,0.00,,,0.00,meteohub,2013-07-08 09:52:00,
2013-07-08 04:57:00,68.5,67.1,29.10,NE,45,0.0,0.0,95,0.00,,,0.00,meteohub,2013-07-08 09:57:00,
2013-07-08 05:02:00,68.4,66.9,29.10,NNE,22,2.0,2.0,95,0.00,,,0.00,meteohub,2013-07-08 10:02:00,
2013-07-08 05:07:00,68.2,66.7,29.10,NNE,22,1.0,3.0,95,0.00,,,0.00,meteohub,2013-07-08 10:07:00,
2013-07-08 05:12:00,68.2,66.7,29.07,NE,45,2.0,3.0,95,0.00,,,0.00,meteohub,2013-07-08 10:12:00,
2013-07-08 05:17:00,68.0,66.6,29.07,ENE,68,2.0,3.0,95,0.00,,,0.00,meteohub,2013-07-08 10:17:00,
2013-07-08 05:22:00,68.0,66.6,29.07,ENE,68,2.0,2.0,95,0.00,,,0.00,meteohub,2013-07-08 10:22:00,
2013-07-08 05:27:00,67.8,66.6,29.07,ENE,68,0.0,2.0,96,0.00,,,0.00,meteohub,2013-07-08 10:27:00,
2013-07-08 05:32:00,67.8,66.6,29.07,ENE,68,0.0,2.0,96,0.00,,,0.00,meteohub,2013-07-08 10:32:00,
2013-07-08 05:37:00,67.6,66.2,29.07,NNE,22,0.0,2.0,95,0.00,,,0.00,meteohub,2013-07-08 10:37:00,
2013-07-08 05:42:00,67.5,66.0,29.10,NE,45,0.0,1.0,95,0.00,,,0.00,meteohub,2013-07-08 10:42:00,
2013-07-08 05:47:00,67.5,66.0,29.10,SSW,202,0.0,0.0,95,0.00,,,0.00,meteohub,2013-07-08 10:47:00,
2013-07-08 05:52:00,67.3,65.8,29.10,SSW,202,0.0,0.0,95,0.00,,,0.00,meteohub,2013-07-08 10:52:00,
2013-07-08 05:57:00,67.1,65.7,29.10,SE,135,0.0,0.0,95,0.00,,,0.00,meteohub,2013-07-08 10:57:00,
2013-07-08 06:02:00,67.1,65.7,29.10,South,180,0.0,0.0,95,0.00,,,0.00,meteohub,2013-07-08 11:02:00,
2013-07-08 06:07:00,67.3,66.0,29.10,West,270,0.0,0.0,96,0.00,,,0.00,meteohub,2013-07-08 11:07:00,
2013-07-08 06:12:00,67.1,65.7,29.07,SE,135,0.0,0.0,95,0.00,,,0.00,meteohub,2013-07-08 11:12:00,
2013-07-08 06:17:00,67.1,65.7,29.07,SE,135,0.0,0.0,95,0.00,,,0.00,meteohub,2013-07-08 11:17:00,
2013-07-08 06:22:00,67.1,65.7,29.07,NE,45,0.0,0.0,95,0.00,,,0.00,meteohub,2013-07-08 11:22:00,
2013-07-08 06:27:00,67.5,66.2,29.10,NE,45,2.0,0.0,96,0.00,,,0.00,meteohub,2013-07-08 11:27:00,
2013-07-08 06:32:00,67.6,66.4,29.10,NNE,22,1.0,2.0,96,0.00,,,0.00,meteohub,2013-07-08 11:32:00,
2013-07-08 06:37:00,67.6,66.4,29.10,NE,45,2.0,2.0,96,0.00,,,0.00,meteohub,2013-07-08 11:37:00,
2013-07-08 06:42:00,67.6,66.4,29.10,NE,45,2.0,3.0,96,0.00,,,0.00,meteohub,2013-07-08 11:42:00,
2013-07-08 06:47:00,67.6,66.4,29.10,NE,45,2.0,3.0,96,0.00,,,0.00,meteohub,2013-07-08 11:47:00,
2013-07-08 06:52:00,67.8,66.6,29.10,NE,45,0.0,3.0,96,0.00,,,0.00,meteohub,2013-07-08 11:52:00,
2013-07-08 06:57:00,67.8,66.6,29.07,NE,45,0.0,3.0,96,0.00,,,0.00,meteohub,2013-07-08 11:57:00,
2013-07-08 07:02:00,67.8,66.4,29.07,NE,45,2.0,2.0,95,0.00,,,0.00,meteohub,2013-07-08 12:02:00,
2013-07-08 07:07:00,67.6,66.2,29.07,NE,45,3.0,3.0,95,0.00,,,0.00,meteohub,2013-07-08 12:07:00,
2013-07-08 07:12:00,67.6,65.8,29.10,NE,45,2.0,3.0,94,0.00,,,0.00,meteohub,2013-07-08 12:12:00,
2013-07-08 07:17:00,67.6,65.8,29.10,NNE,22,0.0,3.0,94,0.00,,,0.00,meteohub,2013-07-08 12:17:00,
2013-07-08 07:22:00,67.6,65.8,29.10,NNE,22,1.0,3.0,94,0.00,,,0.00,meteohub,2013-07-08 12:22:00,
2013-07-08 07:27:00,67.6,65.5,29.13,NE,45,2.0,2.0,93,0.00,,,0.00,meteohub,2013-07-08 12:27:00,
2013-07-08 07:32:00,67.6,65.5,29.13,NE,45,2.0,2.0,93,0.00,,,0.00,meteohub,2013-07-08 12:32:00,
2013-07-08 07:37:00,67.8,65.7,29.13,NE,45,2.0,2.0,93,0.00,,,0.00,meteohub,2013-07-08 12:37:00,
2013-07-08 07:42:00,68.0,65.7,29.13,NE,45,0.0,2.0,92,0.00,,,0.00,meteohub,2013-07-08 12:42:00,
2013-07-08 07:47:00,68.2,65.8,29.13,NE,45,2.0,2.0,92,0.00,,,0.00,meteohub,2013-07-08 12:47:00,
2013-07-08 07:52:00,68.4,66.0,29.13,NE,45,2.0,2.0,92,0.00,,,0.00,meteohub,2013-07-08 12:52:00,
2013-07-08 07:57:00,68.4,65.7,29.13,ENE,68,0.0,3.0,91,0.00,,,0.00,meteohub,2013-07-08 12:57:00,
2013-07-08 08:02:00,68.5,65.8,29.13,NE,45,2.0,3.0,91,0.00,,,0.00,meteohub,2013-07-08 13:02:00,
2013-07-08 08:07:00,68.2,65.1,29.13,NE,45,2.0,3.0,90,0.00,,,0.00,meteohub,2013-07-08 13:07:00,
2013-07-08 08:12:00,68.2,65.1,29.13,NE,45,1.0,3.0,90,0.00,,,0.00,meteohub,2013-07-08 13:12:00,
2013-07-08 08:17:00,68.4,65.3,29.13,NE,45,0.0,3.0,90,0.00,,,0.00,meteohub,2013-07-08 13:17:00,
2013-07-08 08:22:00,68.9,66.2,29.13,NNE,22,0.0,3.0,91,0.00,,,0.00,meteohub,2013-07-08 13:22:00,
2013-07-08 08:27:00,68.9,65.8,29.13,NE,45,2.0,2.0,90,0.00,,,0.00,meteohub,2013-07-08 13:27:00,
2013-07-08 08:32:00,68.7,65.3,29.13,NE,45,1.0,3.0,89,0.00,,,0.00,meteohub,2013-07-08 13:32:00,
2013-07-08 08:37:00,69.1,66.0,29.13,NE,45,0.0,3.0,90,0.00,,,0.00,meteohub,2013-07-08 13:37:00,
2013-07-08 08:42:00,69.3,65.8,29.13,NE,45,3.0,3.0,89,0.00,,,0.00,meteohub,2013-07-08 13:42:00,
2013-07-08 08:47:00,69.4,66.0,29.13,NE,45,2.0,3.0,89,0.00,,,0.00,meteohub,2013-07-08 13:47:00,
2013-07-08 08:52:00,70.0,66.2,29.13,NNE,22,0.0,3.0,88,0.00,,,0.00,meteohub,2013-07-08 13:52:00,
2013-07-08 08:57:00,70.3,66.6,29.13,ENE,68,0.0,3.0,88,0.00,,,0.00,meteohub,2013-07-08 13:57:00,
2013-07-08 09:02:00,70.7,66.6,29.13,NW,315,0.0,2.0,87,0.00,,,0.00,meteohub,2013-07-08 14:02:00,
2013-07-08 09:07:00,71.1,66.9,29.13,NE,45,0.0,1.0,87,0.00,,,0.00,meteohub,2013-07-08 14:07:00,
2013-07-08 09:12:00,71.2,66.9,29.16,NNE,22,1.0,2.0,86,0.00,,,0.00,meteohub,2013-07-08 14:12:00,
2013-07-08 09:17:00,71.6,67.1,29.16,NW,315,1.0,3.0,86,0.00,,,0.00,meteohub,2013-07-08 14:17:00,
2013-07-08 09:22:00,71.6,66.6,29.16,NNW,338,1.0,4.0,84,0.00,,,0.00,meteohub,2013-07-08 14:22:00,
2013-07-08 09:27:00,72.0,66.6,29.16,NNE,22,0.0,4.0,83,0.00,,,0.00,meteohub,2013-07-08 14:27:00,
2013-07-08 09:32:00,72.5,67.1,29.16,NE,45,1.0,4.0,83,0.00,,,0.00,meteohub,2013-07-08 14:32:00,
2013-07-08 09:37:00,73.0,66.9,29.16,NE,45,1.0,3.0,81,0.00,,,0.00,meteohub,2013-07-08 14:37:00,
2013-07-08 09:42:00,73.8,67.3,29.16,NE,45,0.0,3.0,80,0.00,,,0.00,meteohub,2013-07-08 14:42:00,
2013-07-08 09:47:00,75.0,67.3,29.16,NE,45,2.0,3.0,77,0.00,,,0.00,meteohub,2013-07-08 14:47:00,
2013-07-08 09:52:00,75.7,68.0,29.16,NE,45,1.0,3.0,77,0.00,,,0.00,meteohub,2013-07-08 14:52:00,
2013-07-08 09:57:00,76.1,67.3,29.16,NNE,22,1.0,3.0,74,0.00,,,0.00,meteohub,2013-07-08 14:57:00,
2013-07-08 10:02:00,76.6,66.6,29.16,NE,45,2.0,3.0,71,0.00,,,0.00,meteohub,2013-07-08 15:02:00,
2013-07-08 10:07:00,77.2,67.5,29.16,WNW,292,1.0,3.0,72,0.00,,,0.00,meteohub,2013-07-08 15:07:00,
2013-07-08 10:12:00,78.4,68.2,29.16,NNE,22,3.0,3.0,71,0.00,,,0.00,meteohub,2013-07-08 15:12:00,
2013-07-08 10:17:00,78.8,67.3,29.16,NNE,22,2.0,3.0,68,0.00,,,0.00,meteohub,2013-07-08 15:17:00,
2013-07-08 10:22:00,79.0,66.6,29.16,NE,45,2.0,3.0,66,0.00,,,0.00,meteohub,2013-07-08 15:22:00,
2013-07-08 10:27:00,78.8,66.6,29.16,NNE,22,2.0,3.0,66,0.00,,,0.00,meteohub,2013-07-08 15:27:00,
2013-07-08 10:32:00,79.0,66.6,29.16,NE,45,2.0,4.0,66,0.00,,,0.00,meteohub,2013-07-08 15:32:00,
2013-07-08 10:37:00,79.5,67.1,29.16,NE,45,2.0,4.0,66,0.00,,,0.00,meteohub,2013-07-08 15:37:00,
2013-07-08 10:42:00,78.4,65.3,29.16,West,270,1.0,4.0,64,0.00,,,0.00,meteohub,2013-07-08 15:42:00,
2013-07-08 10:47:00,79.3,66.6,29.16,NE,45,2.0,6.0,65,0.00,,,0.00,meteohub,2013-07-08 15:47:00,
2013-07-08 10:52:00,79.9,67.1,29.16,ENE,68,2.0,6.0,65,0.00,,,0.00,meteohub,2013-07-08 15:52:00,
2013-07-08 10:57:00,79.9,67.1,29.16,NE,45,3.0,4.0,65,0.00,,,0.00,meteohub,2013-07-08 15:57:00,
2013-07-08 11:02:00,79.9,67.1,29.16,NE,45,1.0,3.0,65,0.00,,,0.00,meteohub,2013-07-08 16:02:00,
2013-07-08 11:07:00,80.1,67.3,29.16,WNW,292,2.0,3.0,65,0.00,,,0.00,meteohub,2013-07-08 16:07:00,
2013-07-08 11:12:00,80.8,67.5,29.19,ENE,68,3.0,4.0,64,0.00,,,0.00,meteohub,2013-07-08 16:12:00,
2013-07-08 11:17:00,81.3,67.5,29.19,North,0,0.0,4.0,63,0.00,,,0.00,meteohub,2013-07-08 16:17:00,
2013-07-08 11:22:00,82.0,68.2,29.19,ENE,68,0.0,4.0,63,0.00,,,0.00,meteohub,2013-07-08 16:22:00,
2013-07-08 11:27:00,82.9,68.5,29.16,NE,45,2.0,3.0,62,0.00,,,0.00,meteohub,2013-07-08 16:27:00,
2013-07-08 11:32:00,83.5,69.1,29.16,NE,45,1.0,3.0,62,0.00,,,0.00,meteohub,2013-07-08 16:32:00,
2013-07-08 11:37:00,82.2,66.9,29.16,NNE,22,1.0,2.0,60,0.00,,,0.00,meteohub,2013-07-08 16:37:00,
2013-07-08 11:42:00,83.5,68.5,29.16,North,0,1.0,6.0,61,0.00,,,0.00,meteohub,2013-07-08 16:42:00,
2013-07-08 11:47:00,84.2,68.4,29.16,NE,45,2.0,6.0,59,0.00,,,0.00,meteohub,2013-07-08 16:47:00,
2013-07-08 11:52:00,84.4,68.5,29.16,NE,45,2.0,3.0,59,0.00,,,0.00,meteohub,2013-07-08 16:52:00,
2013-07-08 11:57:00,84.6,68.2,29.16,NNE,22,0.0,4.0,58,0.00,,,0.00,meteohub,2013-07-08 16:57:00,
2013-07-08 12:03:00,85.3,69.3,29.16,NNE,22,2.0,4.0,59,0.00,,,0.00,meteohub,2013-07-08 17:03:00,
2013-07-08 12:09:00,86.0,68.5,29.16,NE,45,0.0,4.0,56,0.00,,,0.00,meteohub,2013-07-08 17:09:00,
2013-07-08 12:14:00,85.8,68.4,29.16,NE,45,1.0,3.0,56,0.00,,,0.00,meteohub,2013-07-08 17:14:00,
2013-07-08 12:19:00,86.5,68.4,29.16,NNE,22,1.0,3.0,55,0.00,,,0.00,meteohub,2013-07-08 17:19:00,
2013-07-08 12:24:00,87.1,69.4,29.16,North,0,2.0,3.0,56,0.00,,,0.00,meteohub,2013-07-08 17:24:00,
2013-07-08 12:30:00,87.3,68.5,29.16,NNE,22,2.0,4.0,54,0.00,,,0.00,meteohub,2013-07-08 17:30:00,
2013-07-08 12:35:00,88.0,69.8,29.16,NE,45,1.0,4.0,55,0.00,,,0.00,meteohub,2013-07-08 17:35:00,
2013-07-08 12:40:00,88.3,69.6,29.16,NE,45,1.0,4.0,54,0.00,,,0.00,meteohub,2013-07-08 17:40:00,
2013-07-08 12:45:00,88.9,69.4,29.16,NE,45,2.0,2.0,53,0.00,,,0.00,meteohub,2013-07-08 17:45:00,
2013-07-08 12:50:00,90.1,69.6,29.16,NW,315,0.0,2.0,51,0.00,,,0.00,meteohub,2013-07-08 17:50:00,
2013-07-08 12:55:00,90.7,70.0,29.13,East,90,2.0,3.0,51,0.00,,,0.00,meteohub,2013-07-08 17:55:00,
2013-07-08 13:00:00,91.0,70.3,29.13,North,0,1.0,3.0,51,0.00,,,0.00,meteohub,2013-07-08 18:00:00,
2013-07-08 13:05:00,91.0,69.8,29.13,NE,45,0.0,3.0,50,0.00,,,0.00,meteohub,2013-07-08 18:05:00,
2013-07-08 13:11:00,91.6,69.1,29.13,NE,45,0.0,3.0,48,0.00,,,0.00,meteohub,2013-07-08 18:11:00,
2013-07-08 13:16:00,92.8,69.1,29.13,SE,135,0.0,3.0,46,0.00,,,0.00,meteohub,2013-07-08 18:16:00,
2013-07-08 13:22:00,93.6,69.6,29.13,East,90,1.0,3.0,46,0.00,,,0.00,meteohub,2013-07-08 18:22:00,
2013-07-08 13:27:00,94.8,70.7,29.13,NE,45,0.0,3.0,46,0.00,,,0.00,meteohub,2013-07-08 18:27:00,
2013-07-08 13:32:00,94.6,70.0,29.13,North,0,0.0,1.0,45,0.00,,,0.00,meteohub,2013-07-08 18:32:00,
2013-07-08 13:38:00,92.5,68.7,29.13,NNE,22,3.0,3.0,46,0.00,,,0.00,meteohub,2013-07-08 18:38:00,
2013-07-08 13:43:00,92.8,68.4,29.16,NW,315,1.0,3.0,45,0.00,,,0.00,meteohub,2013-07-08 18:43:00,
2013-07-08 13:48:00,94.3,69.6,29.16,NE,45,0.0,4.0,45,0.00,,,0.00,meteohub,2013-07-08 18:48:00,
2013-07-08 13:54:00,95.0,68.9,29.16,NE,45,0.0,4.0,43,0.00,,,0.00,meteohub,2013-07-08 18:54:00,
2013-07-08 13:59:00,95.2,69.1,29.16,NNE,22,5.0,5.0,43,0.00,,,0.00,meteohub,2013-07-08 18:59:00,
2013-07-08 14:05:00,96.3,69.4,29.16,NE,45,0.0,4.0,42,0.00,,,0.00,meteohub,2013-07-08 19:05:00,
2013-07-08 14:10:00,96.1,69.3,29.13,NW,315,4.0,5.0,42,0.00,,,0.00,meteohub,2013-07-08 19:10:00,
2013-07-08 14:15:00,94.6,68.0,29.13,NE,45,0.0,4.0,42,0.00,,,0.00,meteohub,2013-07-08 19:15:00,
2013-07-08 14:21:00,95.4,68.5,29.13,ENE,68,0.0,4.0,42,0.00,,,0.00,meteohub,2013-07-08 19:21:00,
2013-07-08 14:27:00,95.9,69.1,29.13,NNE,22,0.0,4.0,42,0.00,,,0.00,meteohub,2013-07-08 19:27:00,
2013-07-08 14:32:00,96.4,69.6,29.13,SSW,202,0.0,4.0,42,0.00,,,0.00,meteohub,2013-07-08 19:32:00,
2013-07-08 14:37:00,96.1,69.3,29.13,NW,315,0.0,1.0,42,0.00,,,0.00,meteohub,2013-07-08 19:37:00,
2013-07-08 14:42:00,95.7,69.6,29.13,NNE,22,2.0,2.0,43,0.00,,,0.00,meteohub,2013-07-08 19:42:00,
2013-07-08 14:48:00,97.7,70.0,29.13,NNE,22,0.0,3.0,41,0.00,,,0.00,meteohub,2013-07-08 19:48:00,
2013-07-08 14:53:00,97.5,69.1,29.13,NE,45,0.0,3.0,40,0.00,,,0.00,meteohub,2013-07-08 19:53:00,
2013-07-08 14:58:00,97.9,69.4,29.13,ENE,68,0.0,3.0,40,0.00,,,0.00,meteohub,2013-07-08 19:58:00,
2013-07-08 15:04:00,97.0,68.5,29.13,NE,45,0.0,3.0,40,0.00,,,0.00,meteohub,2013-07-08 20:04:00,
2013-07-08 15:09:00,95.2,67.8,29.13,NE,45,0.0,2.0,41,0.00,,,0.00,meteohub,2013-07-08 20:09:00,
2013-07-08 15:14:00,93.0,67.3,29.13,SSW,202,4.0,0.0,43,0.00,,,0.00,meteohub,2013-07-08 20:14:00,
2013-07-08 15:20:00,91.8,66.0,29.13,NE,45,0.0,4.0,43,0.00,,,0.00,meteohub,2013-07-08 20:20:00,
2013-07-08 15:25:00,91.6,66.6,29.13,NNE,22,0.0,4.0,44,0.00,,,0.00,meteohub,2013-07-08 20:25:00,
2013-07-08 15:30:00,91.2,67.5,29.13,East,90,0.0,2.0,46,0.00,,,0.00,meteohub,2013-07-08 20:30:00,
2013-07-08 15:35:00,91.8,68.0,29.13,West,270,0.0,0.0,46,0.00,,,0.00,meteohub,2013-07-08 20:35:00,
2013-07-08 15:41:00,93.2,69.3,29.13,NE,45,0.0,0.0,46,0.00,,,0.00,meteohub,2013-07-08 20:41:00,
2013-07-08 15:47:00,95.0,69.6,29.13,SE,135,0.0,0.0,44,0.00,,,0.00,meteohub,2013-07-08 20:47:00,
2013-07-08 15:52:00,95.2,69.1,29.13,SSW,202,0.0,0.0,43,0.00,,,0.00,meteohub,2013-07-08 20:52:00,
2013-07-08 15:57:00,95.4,69.3,29.13,NNW,338,0.0,0.0,43,0.00,,,0.00,meteohub,2013-07-08 20:57:00,
2013-07-08 16:03:00,94.5,68.5,29.13,SW,225,0.0,0.0,43,0.00,,,0.00,meteohub,2013-07-08 21:03:00,
2013-07-08 16:09:00,95.4,69.3,29.13,ENE,68,0.0,3.0,43,0.00,,,0.00,meteohub,2013-07-08 21:09:00,
2013-07-08 16:14:00,95.9,69.1,29.13,ENE,68,2.0,3.0,42,0.00,,,0.00,meteohub,2013-07-08 21:14:00,
2013-07-08 16:21:00,95.5,68.7,29.13,NE,45,0.0,3.0,42,0.00,,,0.00,meteohub,2013-07-08 21:21:00,
2013-07-08 16:26:00,95.5,68.0,29.13,NW,315,0.0,4.0,41,0.00,,,0.00,meteohub,2013-07-08 21:26:00,
2013-07-08 16:32:00,94.8,67.5,29.13,NE,45,2.0,5.0,41,0.00,,,0.00,meteohub,2013-07-08 21:32:00,
2013-07-08 16:37:00,94.3,66.9,29.13,West,270,0.0,5.0,41,0.00,,,0.00,meteohub,2013-07-08 21:37:00,
2013-07-08 16:42:00,94.5,67.8,29.13,NE,45,0.0,5.0,42,0.00,,,0.00,meteohub,2013-07-08 21:42:00,
2013-07-08 16:47:00,94.6,67.3,29.13,North,0,0.0,3.0,41,0.00,,,0.00,meteohub,2013-07-08 21:47:00,
2013-07-08 16:52:00,92.8,65.7,29.13,SSW,202,3.0,3.0,41,0.00,,,0.00,meteohub,2013-07-08 21:52:00,
2013-07-08 16:57:00,93.7,66.4,29.13,East,90,0.0,3.0,41,0.00,,,0.00,meteohub,2013-07-08 21:57:00,
2013-07-08 17:03:00,93.9,65.8,29.13,ENE,68,0.0,3.0,40,0.00,,,0.00,meteohub,2013-07-08 22:03:00,
2013-07-08 17:08:00,94.1,66.0,29.13,North,0,0.0,3.0,40,0.00,,,0.00,meteohub,2013-07-08 22:08:00,
2013-07-08 17:13:00,93.7,66.4,29.10,SSW,202,0.0,3.0,41,0.00,,,0.00,meteohub,2013-07-08 22:13:00,
2013-07-08 17:19:00,93.6,65.7,29.10,East,90,0.0,4.0,40,0.00,,,0.00,meteohub,2013-07-08 22:19:00,
2013-07-08 17:24:00,94.3,66.2,29.13,NE,45,0.0,4.0,40,0.00,,,0.00,meteohub,2013-07-08 22:24:00,
2013-07-08 17:29:00,93.9,65.8,29.13,ENE,68,0.0,2.0,40,0.00,,,0.00,meteohub,2013-07-08 22:29:00,
2013-07-08 17:35:00,93.7,66.4,29.13,South,180,0.0,0.0,41,0.00,,,0.00,meteohub,2013-07-08 22:35:00,
2013-07-08 17:40:00,94.1,66.7,29.10,SE,135,0.0,0.0,41,0.00,,,0.00,meteohub,2013-07-08 22:40:00,
2013-07-08 17:45:00,93.6,66.4,29.10,West,270,0.0,0.0,41,0.00,,,0.00,meteohub,2013-07-08 22:45:00,
2013-07-08 17:50:00,94.1,66.7,29.10,West,270,0.0,0.0,41,0.00,,,0.00,meteohub,2013-07-08 22:50:00,
2013-07-08 17:55:00,92.7,66.2,29.10,West,270,0.0,2.0,42,0.00,,,0.00,meteohub,2013-07-08 22:55:00,
2013-07-08 18:01:00,93.2,66.7,29.10,SW,225,0.0,2.0,42,0.00,,,0.00,meteohub,2013-07-08 23:01:00,
2013-07-08 18:06:00,92.3,65.8,29.10,North,0,2.0,2.0,42,0.00,,,0.00,meteohub,2013-07-08 23:06:00,
2013-07-08 18:11:00,92.3,66.6,29.10,NNE,22,0.0,2.0,43,0.00,,,0.00,meteohub,2013-07-08 23:11:00,
2013-07-08 18:16:00,91.4,65.7,29.10,NE,45,0.0,3.0,43,0.00,,,0.00,meteohub,2013-07-08 23:16:00,
2013-07-08 18:22:00,91.4,65.7,29.10,East,90,0.0,3.0,43,0.00,,,0.00,meteohub,2013-07-08 23:22:00,
2013-07-08 18:27:00,90.9,65.3,29.10,NNE,22,2.0,3.0,43,0.00,,,0.00,meteohub,2013-07-08 23:27:00,
2013-07-08 18:32:00,89.6,64.0,29.10,North,0,0.0,2.0,43,0.00,,,0.00,meteohub,2013-07-08 23:32:00,
2013-07-08 18:37:00,89.1,64.2,29.10,NE,45,0.0,2.0,44,0.00,,,0.00,meteohub,2013-07-08 23:37:00,
2013-07-08 18:42:00,88.5,64.4,29.10,NNE,22,4.0,4.0,45,0.00,,,0.00,meteohub,2013-07-08 23:42:00,
2013-07-08 18:47:00,88.2,64.8,29.10,NNW,338,0.0,4.0,46,0.00,,,0.00,meteohub,2013-07-08 23:47:00,
2013-07-08 18:53:00,87.1,64.9,29.10,NNW,338,3.0,4.0,48,0.00,,,0.00,meteohub,2013-07-08 23:53:00,
2013-07-08 18:58:00,86.7,65.8,29.10,SW,225,0.0,4.0,50,0.00,,,0.00,meteohub,2013-07-08 23:58:00,
2013-07-08 19:03:00,86.2,65.3,29.10,NNW,338,1.0,3.0,50,0.00,,,0.00,meteohub,2013-07-09 00:03:00,
2013-07-08 19:09:00,85.6,66.0,29.10,NNE,22,0.0,3.0,52,0.00,,,0.00,meteohub,2013-07-09 00:09:00,
2013-07-08 19:14:00,85.3,66.2,29.10,NNW,338,0.0,3.0,53,0.00,,,0.00,meteohub,2013-07-09 00:14:00,
2013-07-08 19:19:00,85.1,67.1,29.10,NNW,338,0.0,3.0,55,0.00,,,0.00,meteohub,2013-07-09 00:19:00,
2013-07-08 19:24:00,84.9,66.9,29.10,North,0,0.0,3.0,55,0.00,,,0.00,meteohub,2013-07-09 00:24:00,
2013-07-08 19:29:00,85.1,68.2,29.10,NE,45,0.0,3.0,57,0.00,,,0.00,meteohub,2013-07-09 00:29:00,
2013-07-08 19:35:00,84.9,68.5,29.10,NE,45,0.0,3.0,58,0.00,,,0.00,meteohub,2013-07-09 00:35:00,
2013-07-08 19:40:00,84.7,68.4,29.10,ENE,68,0.0,0.0,58,0.00,,,0.00,meteohub,2013-07-09 00:40:00,
2013-07-08 19:46:00,84.4,68.0,29.10,NE,45,0.0,0.0,58,0.00,,,0.00,meteohub,2013-07-09 00:46:00,
2013-07-08 19:52:00,83.8,68.0,29.10,NE,45,0.0,0.0,59,0.00,,,0.00,meteohub,2013-07-09 00:52:00,
2013-07-08 19:57:00,83.3,67.5,29.10,ENE,68,0.0,0.0,59,0.00,,,0.00,meteohub,2013-07-09 00:57:00,
2013-07-08 20:02:00,82.8,66.9,29.10,NE,45,0.0,0.0,59,0.00,,,0.00,meteohub,2013-07-09 01:02:00,
2013-07-08 20:07:00,82.6,66.7,29.10,NE,45,0.0,0.0,59,0.00,,,0.00,meteohub,2013-07-09 01:07:00,
2013-07-08 20:12:00,82.4,67.1,29.10,NE,45,0.0,0.0,60,0.00,,,0.00,meteohub,2013-07-09 01:12:00,
2013-07-08 20:18:00,82.0,66.7,29.10,NE,45,0.0,0.0,60,0.00,,,0.00,meteohub,2013-07-09 01:18:00,
2013-07-08 20:23:00,81.7,66.9,29.10,NE,45,0.0,0.0,61,0.00,,,0.00,meteohub,2013-07-09 01:23:00,
2013-07-08 20:29:00,81.3,66.6,29.10,NE,45,0.0,0.0,61,0.00,,,0.00,meteohub,2013-07-09 01:29:00,
2013-07-08 20:34:00,81.0,66.7,29.10,NE,45,0.0,0.0,62,0.00,,,0.00,meteohub,2013-07-09 01:34:00,
2013-07-08 20:40:00,80.4,66.7,29.07,NE,45,0.0,0.0,63,0.00,,,0.00,meteohub,2013-07-09 01:40:00,
2013-07-08 20:45:00,80.1,67.3,29.07,NE,45,0.0,0.0,65,0.00,,,0.00,meteohub,2013-07-09 01:45:00,
2013-07-08 20:50:00,79.7,66.9,29.07,NE,45,0.0,0.0,65,0.00,,,0.00,meteohub,2013-07-09 01:50:00,
2013-07-08 20:56:00,79.3,66.9,29.10,NE,45,0.0,0.0,66,0.00,,,0.00,meteohub,2013-07-09 01:56:00,
2013-07-08 21:01:00,78.6,66.7,29.10,NE,45,0.0,0.0,67,0.00,,,0.00,meteohub,2013-07-09 02:01:00,
2013-07-08 21:06:00,78.4,66.6,29.10,NE,45,0.0,0.0,67,0.00,,,0.00,meteohub,2013-07-09 02:06:00,
2013-07-08 21:11:00,78.1,66.7,29.10,NE,45,0.0,0.0,68,0.00,,,0.00,meteohub,2013-07-09 02:11:00,
2013-07-08 21:16:00,77.7,66.4,29.10,NE,45,0.0,0.0,68,0.00,,,0.00,meteohub,2013-07-09 02:16:00,
2013-07-08 21:22:00,77.4,66.7,29.10,NE,45,0.0,0.0,70,0.00,,,0.00,meteohub,2013-07-09 02:22:00,
2013-07-08 21:27:00,76.8,67.1,29.10,NE,45,0.0,0.0,72,0.00,,,0.00,meteohub,2013-07-09 02:27:00,
2013-07-08 21:32:00,76.6,66.9,29.10,NE,45,0.0,0.0,72,0.00,,,0.00,meteohub,2013-07-09 02:32:00,
2013-07-08 21:37:00,76.6,66.6,29.10,NE,45,0.0,0.0,71,0.00,,,0.00,meteohub,2013-07-09 02:37:00,
2013-07-08 21:42:00,77.0,67.6,29.10,ENE,68,0.0,0.0,73,0.00,,,0.00,meteohub,2013-07-09 02:42:00,
2013-07-08 21:47:00,77.0,67.3,29.10,ENE,68,0.0,0.0,72,0.00,,,0.00,meteohub,2013-07-09 02:47:00,
2013-07-08 21:52:00,77.2,67.5,29.10,East,90,0.0,0.0,72,0.00,,,0.00,meteohub,2013-07-09 02:52:00,
2013-07-08 21:57:00,77.2,67.5,29.10,NE,45,0.0,0.0,72,0.00,,,0.00,meteohub,2013-07-09 02:57:00,
2013-07-08 22:03:00,77.2,67.5,29.10,NE,45,0.0,0.0,72,0.00,,,0.00,meteohub,2013-07-09 03:03:00,
2013-07-08 22:08:00,77.2,67.5,29.10,NE,45,0.0,0.0,72,0.00,,,0.00,meteohub,2013-07-09 03:08:00,
2013-07-08 22:13:00,77.0,67.3,29.13,ENE,68,0.0,0.0,72,0.00,,,0.00,meteohub,2013-07-09 03:13:00,
2013-07-08 22:19:00,77.0,67.6,29.13,East,90,0.0,0.0,73,0.00,,,0.00,meteohub,2013-07-09 03:19:00,
2013-07-08 22:24:00,77.0,68.0,29.10,ENE,68,0.0,0.0,74,0.00,,,0.00,meteohub,2013-07-09 03:24:00,
2013-07-08 22:29:00,77.0,68.0,29.10,East,90,0.0,0.0,74,0.00,,,0.00,meteohub,2013-07-09 03:29:00,
2013-07-08 22:34:00,76.8,67.8,29.10,NE,45,0.0,0.0,74,0.00,,,0.00,meteohub,2013-07-09 03:34:00,
2013-07-08 22:39:00,76.8,67.8,29.13,NE,45,0.0,0.0,74,0.00,,,0.00,meteohub,2013-07-09 03:39:00,
2013-07-08 22:45:00,76.6,67.6,29.13,ENE,68,0.0,0.0,74,0.00,,,0.00,meteohub,2013-07-09 03:45:00,
2013-07-08 22:50:00,76.5,67.6,29.13,ENE,68,0.0,0.0,74,0.00,,,0.00,meteohub,2013-07-09 03:50:00,
2013-07-08 22:55:00,76.5,68.0,29.13,NE,45,0.0,0.0,75,0.00,,,0.00,meteohub,2013-07-09 03:55:00,
2013-07-08 23:00:00,76.5,68.4,29.13,NE,45,0.0,0.0,76,0.00,,,0.00,meteohub,2013-07-09 04:00:00,
2013-07-08 23:01:00,76.3,68.2,29.13,NE,45,0.0,0.0,76,0.00,,,0.00,meteohub,2013-07-09 04:01:00,
2013-07-08 23:02:00,76.3,68.2,29.13,NE,45,0.0,0.0,76,0.00,,,0.00,meteohub,2013-07-09 04:02:00,
2013-07-08 23:03:00,76.3,68.2,29.13,NE,45,0.0,0.0,76,0.00,,,0.00,meteohub,2013-07-09 04:03:00,
2013-07-08 23:08:00,76.3,68.2,29.13,NE,45,0.0,0.0,76,0.00,,,0.00,meteohub,2013-07-09 04:08:00,
2013-07-08 23:13:00,76.3,68.2,29.13,NE,45,0.0,0.0,76,0.00,,,0.00,meteohub,2013-07-09 04:13:00,
2013-07-08 23:19:00,76.1,68.0,29.13,ENE,68,0.0,0.0,76,0.00,,,0.00,meteohub,2013-07-09 04:19:00,
2013-07-08 23:24:00,76.1,68.4,29.13,ENE,68,0.0,0.0,77,0.00,,,0.00,meteohub,2013-07-09 04:24:00,
2013-07-08 23:29:00,75.9,68.5,29.13,ENE,68,0.0,0.0,78,0.00,,,0.00,meteohub,2013-07-09 04:29:00,
2013-07-08 23:34:00,75.9,68.5,29.13,ENE,68,0.0,0.0,78,0.00,,,0.00,meteohub,2013-07-09 04:34:00,
2013-07-08 23:39:00,75.9,68.5,29.13,ENE,68,0.0,0.0,78,0.00,,,0.00,meteohub,2013-07-09 04:39:00,
2013-07-08 23:44:00,75.9,68.5,29.13,NE,45,0.0,1.0,78,0.00,,,0.00,meteohub,2013-07-09 04:44:00,
2013-07-08 23:49:00,75.9,68.5,29.13,NE,45,0.0,1.0,78,0.00,,,0.00,meteohub,2013-07-09 04:49:00,
2013-07-08 23:54:00,75.9,68.9,29.10,NE,45,0.0,2.0,79,0.00,,,0.00,meteohub,2013-07-09 04:54:00,
2013-07-08 23:59:00,75.9,68.9,29.10,ENE,68,1.0,2.0,79,0.00,,,0.00,meteohub,2013-07-09 04:59:00,